sat.trackr.live / text

‹ back to catalog

STARLINK-37358

NORAD 68699 · 2026-081A

PAYLOAD ACTIVE UNKNOWN

§ Identity

Operator
Country
US
Launch date
2026-04-14
Launch site
AFETR
Launch vehicle
Mass (kg)
RCS (m²)

Purposes: comms

External: N2YO · Heavens-Above · Gunter

§ Orbital elements

Epoch: 2026-09-20T02:36:57.891168Z

Period
93.85 min
Inclination
53.1586°
Eccentricity
0.0001158
Mean motion
15.34372879 rev/d
Perigee alt
462.0 km
Apogee alt
463.6 km
Semi-major
6,840.9 km
B*
4.5879e-4
RAAN
207.8914°
Arg perigee
112.4941°
Mean anomaly
247.6185°
Rev number
2,455

§ Raw data

STARLINK-373581 68699U 26081A   26263.10900337  .00015143  00000+0  45879-3 0  99962 68699  53.1586 207.8914 0001158 112.4941 247.6185 15.34372879 24554

JSON: /api/v1/satellites/68699 · /tle

For live sub-satellite position, see the globe view (requires WebGL).

§ Visibility from observer

Set your observer location to see the next 7 days of passes ≥ 10°. The values pass through the URL so the page stays shareable.

No JS? Fill the form by hand. The geolocation button needs JavaScript.